Fort Atkinson, Wisconsin, United States (53538)
Lat: 42.93N, Lon: 88.84W
Wx Zone: WIZ064
Local Info
Past Weather Observations for Today

NOTE: This archive is for the closest National Weather Service station to Fort Atkinson. Information may differ from the station used for current weather conditions.

Time Weather Temperature Dewpoint Humidity Pressure Winds Precip Visibility
23:35
Clear
36°F / 2°C 32°F / 0°C 87% 30.27 in
(1025 mb)
N 4.6 mph
(N 7 kph)
- 10SM
23:15
Clear
36°F / 2°C 32°F / 0°C 87% 30.27 in
(1025 mb)
NNW 4.6 mph
(NNW 7 kph)
- 10SM
22:55
Partly Cloudy
37°F / 3°C 32°F / 0°C 81% 30.27 in
(1025 mb)
NNW 5.8 mph
(NNW 9 kph)
- 10SM
22:35
Mostly Cloudy
37°F / 3°C 34°F / 1°C 87% 30.27 in
(1025 mb)
N 5.8 mph
(N 9 kph)
- 10SM
22:15
Overcast
37°F / 3°C 34°F / 1°C 87% 30.27 in
(1025 mb)
N 4.6 mph
(N 7 kph)
- 10SM
21:55
Mostly Cloudy
39°F / 4°C 34°F / 1°C 81% 30.27 in
(1025 mb)
N 6.9 mph
(N 11 kph)
- 10SM
21:35
Clear
39°F / 4°C 34°F / 1°C 81% 30.27 in
(1025 mb)
NNW 8.1 mph
(NNW 13 kph)
- 10SM
21:15
Clear
39°F / 4°C 34°F / 1°C 81% 30.27 in
(1025 mb)
N 9.2 mph
(N 15 kph)
- 10SM
20:55
Clear
41°F / 5°C 36°F / 2°C 81% 30.27 in
(1025 mb)
N 5.8 mph
(N 9 kph)
- 10SM
20:35
Clear
41°F / 5°C 34°F / 1°C 76% 30.27 in
(1025 mb)
N 6.9 mph
(N 11 kph)
- 10SM
20:15
Clear
43°F / 6°C 36°F / 2°C 76% 30.27 in
(1025 mb)
NNW 8.1 mph
(NNW 13 kph)
- 10SM
19:55
Clear
45°F / 7°C 36°F / 2°C 71% 30.24 in
(1024 mb)
NNW 9.2 mph
(NNW 15 kph)
- 10SM
19:35
Clear
46°F / 8°C 37°F / 3°C 71% 30.24 in
(1024 mb)
N 8.1 mph
(N 13 kph)
- 10SM
19:15
Clear
46°F / 8°C 37°F / 3°C 71% 30.24 in
(1024 mb)
N 4.6 mph
(N 7 kph)
- 10SM
18:55
Clear
48°F / 9°C 37°F / 3°C 66% 30.21 in
(1023 mb)
NNW 8.1 mph
(NNW 13 kph)
- 10SM
18:35
Clear
50°F / 10°C 37°F / 3°C 62% 30.21 in
(1023 mb)
NW 5.8 mph
(NW 9 kph)
- 10SM
18:15
Partly Cloudy
52°F / 11°C 37°F / 3°C 58% 30.21 in
(1023 mb)
NW 5.8 mph
(NW 9 kph)
- 10SM
17:55
Clear
52°F / 11°C 37°F / 3°C 58% 30.21 in
(1023 mb)
NW 5.8 mph
(NW 9 kph)
- 10SM
17:35
Partly Cloudy
52°F / 11°C 37°F / 3°C 58% 30.21 in
(1023 mb)
WNW 6.9 mph
(WNW 11 kph)
- 10SM
17:15
Partly Cloudy
54°F / 12°C 37°F / 3°C 54% 30.21 in
(1023 mb)
NW 6.9 mph
(NW 11 kph)
- 10SM
16:55
Partly Cloudy
54°F / 12°C 37°F / 3°C 54% 30.21 in
(1023 mb)
WNW 8.1 mph
(WNW 13 kph)
- 10SM
16:35
Mostly Cloudy
54°F / 12°C 37°F / 3°C 54% 30.21 in
(1023 mb)
W 9.2 mph
(W 15 kph)
- 10SM
16:15
Overcast
54°F / 12°C 37°F / 3°C 54% 30.21 in
(1023 mb)
WNW 8.1 mph
(WNW 13 kph)
- 10SM
15:55
Mostly Cloudy
54°F / 12°C 37°F / 3°C 54% 30.18 in
(1022 mb)
SSW 5.8 mph
(SSW 9 kph)
- 10SM
15:35
Mostly Cloudy
54°F / 12°C 37°F / 3°C 54% 30.18 in
(1022 mb)
W 6.9 mph
(W 11 kph)
- 10SM
15:15
Mostly Cloudy
54°F / 12°C 37°F / 3°C 54% 30.18 in
(1022 mb)
SW 10.4 mph
(SW 17 kph)
- 10SM
14:55
Mostly Cloudy
54°F / 12°C 39°F / 4°C 58% 30.18 in
(1022 mb)
W 8.1 mph
(W 13 kph)
- 10SM
14:35
Overcast
54°F / 12°C 39°F / 4°C 58% 30.18 in
(1022 mb)
SSW 6.9 mph
(SSW 11 kph)
- 10SM
14:15
Mostly Cloudy
52°F / 11°C 37°F / 3°C 58% 30.18 in
(1022 mb)
W 10.4 mph
(W 17 kph)
- 10SM
13:55
Overcast
52°F / 11°C 37°F / 3°C 58% 30.18 in
(1022 mb)
SSW 8.1 mph
(SSW 13 kph)
- 10SM
13:35
Overcast
52°F / 11°C 37°F / 3°C 58% 30.18 in
(1022 mb)
W 6.9 mph
(W 11 kph)
- 10SM
13:15
Overcast
50°F / 10°C 37°F / 3°C 62% 30.18 in
(1022 mb)
W 5.8 mph
(W 9 kph)
- 10SM
12:55
Overcast
48°F / 9°C 37°F / 3°C 66% 30.18 in
(1022 mb)
WNW 8.1 mph
(WNW 13 kph)
- 10SM
12:35
Overcast
48°F / 9°C 37°F / 3°C 66% 30.18 in
(1022 mb)
SSW 10.4 mph
(SSW 17 kph)
- 10SM
12:15
Overcast
46°F / 8°C 37°F / 3°C 71% 30.15 in
(1021 mb)
W 5.8 mph
(W 9 kph)
- 10SM
11:55
Overcast
46°F / 8°C 37°F / 3°C 71% 30.15 in
(1021 mb)
SSW 9.2 mph
(SSW 15 kph)
- 10SM
11:35
Overcast
45°F / 7°C 37°F / 3°C 76% 30.15 in
(1021 mb)
SSW 8.1 mph
(SSW 13 kph)
- 10SM
11:15
Overcast
45°F / 7°C 37°F / 3°C 76% 30.15 in
(1021 mb)
SSW 10.4 mph
(SSW 17 kph)
- 10SM
10:55
Overcast
45°F / 7°C 37°F / 3°C 76% 30.15 in
(1021 mb)
SSW 9.2 mph
(SSW 15 kph)
- 10SM
10:35
Overcast
45°F / 7°C 37°F / 3°C 76% 30.15 in
(1021 mb)
SSW 10.4 mph
(SSW 17 kph)
- 10SM
10:15
Overcast
45°F / 7°C 37°F / 3°C 76% 30.15 in
(1021 mb)
SW 13.8 mph
(SW 22 kph)
- 10SM
09:55
Overcast
45°F / 7°C 37°F / 3°C 76% 30.12 in
(1020 mb)
SSW 9.2 mph
(SSW 15 kph)
- 10SM
09:35
Overcast
45°F / 7°C 37°F / 3°C 76% 30.12 in
(1020 mb)
SW 15 mph
(SW 24 kph)
- 10SM
09:15
Overcast
45°F / 7°C 36°F / 2°C 71% 30.12 in
(1020 mb)
SW 15 mph
(SW 24 kph)
- 10SM
08:55
Mostly Cloudy
46°F / 8°C 37°F / 3°C 71% 30.09 in
(1019 mb)
SW 12.7 mph
(SW 20 kph)
- 10SM
08:35
Overcast
45°F / 7°C 36°F / 2°C 71% 30.09 in
(1019 mb)
SW 13.8 mph
(SW 22 kph)
- 10SM
08:15
Overcast
45°F / 7°C 34°F / 1°C 66% 30.09 in
(1019 mb)
SW 16.1 mph
(SW 26 kph)
- 10SM
07:55
Overcast
45°F / 7°C 34°F / 1°C 66% 30.06 in
(1018 mb)
SW 16.1 mph
(SW 26 kph)
- 10SM
07:35
Overcast
43°F / 6°C 32°F / 0°C 66% 30.06 in
(1018 mb)
SSE 13.8 mph
(SSE 22 kph)
- 10SM
07:15
Overcast
43°F / 6°C 32°F / 0°C 66% 30.06 in
(1018 mb)
SSE 11.5 mph
(SSE 19 kph)
- 10SM
06:55
Overcast
43°F / 6°C 32°F / 0°C 66% 30.06 in
(1018 mb)
S 13.8 mph
(S 22 kph)
- 10SM
06:35
Overcast
43°F / 6°C 30°F / -1°C 61% 30.06 in
(1018 mb)
S 13.8 mph
(S 22 kph)
- 10SM
06:15
Overcast
43°F / 6°C 30°F / -1°C 61% 30.04 in
(1017 mb)
S 13.8 mph
(S 22 kph)
- 10SM
05:55
Overcast
43°F / 6°C 30°F / -1°C 61% 30.04 in
(1017 mb)
S 12.7 mph
(S 20 kph)
- 10SM
05:35
Overcast
43°F / 6°C 28°F / -2°C 57% 30.04 in
(1017 mb)
S 12.7 mph
(S 20 kph)
- 10SM
05:15
Overcast
43°F / 6°C 28°F / -2°C 57% 30.04 in
(1017 mb)
SSE 8.1 mph
(SSE 13 kph)
- 10SM
04:55
Overcast
43°F / 6°C 28°F / -2°C 57% 30.04 in
(1017 mb)
SSE 12.7 mph
(SSE 20 kph)
- 10SM
04:35
Overcast
43°F / 6°C 28°F / -2°C 57% 30.04 in
(1017 mb)
SSE 9.2 mph
(SSE 15 kph)
- 10SM
04:15
Overcast
43°F / 6°C 27°F / -3°C 53% 30.04 in
(1017 mb)
SSE 10.4 mph
(SSE 17 kph)
- 10SM
03:55
Overcast
43°F / 6°C 27°F / -3°C 53% 30.04 in
(1017 mb)
SE 9.2 mph
(SE 15 kph)
- 10SM
03:35
Overcast
43°F / 6°C 27°F / -3°C 53% 30.04 in
(1017 mb)
SE 11.5 mph
(SE 19 kph)
- 10SM
03:15
Overcast
43°F / 6°C 27°F / -3°C 53% 30.04 in
(1017 mb)
SE 10.4 mph
(SE 17 kph)
- 10SM
02:55
Overcast
43°F / 6°C 27°F / -3°C 53% 30.04 in
(1017 mb)
SE 10.4 mph
(SE 17 kph)
- 10SM
02:35
Overcast
41°F / 5°C 27°F / -3°C 57% 30.04 in
(1017 mb)
SE 11.5 mph
(SE 19 kph)
- 10SM
02:15
Overcast
41°F / 5°C 27°F / -3°C 57% 30.06 in
(1018 mb)
SE 11.5 mph
(SE 19 kph)
- 10SM
01:55
Overcast
41°F / 5°C 27°F / -3°C 57% 30.06 in
(1018 mb)
SE 11.5 mph
(SE 19 kph)
- 10SM
01:35
Overcast
41°F / 5°C 27°F / -3°C 57% 30.06 in
(1018 mb)
SE 10.4 mph
(SE 17 kph)
- 10SM
01:15
Overcast
41°F / 5°C 28°F / -2°C 61% 30.06 in
(1018 mb)
SE 11.5 mph
(SE 19 kph)
- 10SM
00:55
Overcast
41°F / 5°C 28°F / -2°C 61% 30.09 in
(1019 mb)
SE 10.4 mph
(SE 17 kph)
- 10SM
00:35
Overcast
41°F / 5°C 28°F / -2°C 61% 30.09 in
(1019 mb)
SE 12.7 mph
(SE 20 kph)
- 10SM
00:15
Overcast
41°F / 5°C 28°F / -2°C 61% 30.09 in
(1019 mb)
SE 9.2 mph
(SE 15 kph)
- 10SM
Time Weather Temperature Dewpoint Humidity Pressure Winds Precip Visibility


Weather for websites

WeatherForYou.com, LLC is not responsible for any damages or problems caused by this service. Current weather conditions are obtained from the closest station including government and personal stations which may have varying degrees of accuracy. Weather forecasts are derived from the NOAA NDFD. Like all things, this site belongs to Jesus Christ... He just trusts me to maintain it. If you have any questions or comments email webmaster@weatherforyou.com

Copyright © 2014, WeatherForYou.com LLC. All rights reserved.